Regional Weather Roundup
Issued by NWS Charleston, SC

Current Version | Previous Version | Graphics & Text | Print | Product List | Glossary On
Versions: 1 2 3 4 5 6 7 8 9 10 11 12 13 14 15 16 17 18 19 20 21 22 23 24 25 26 27 28 29 30 31 32 33 34 35 36 37 38 39 40 41 42 43 44 45 46 47 48 49 50
000
ASUS42 KCHS 260312
RWRCHS

REGIONAL WEATHER ROUNDUP
NATIONAL WEATHER SERVICE CHARLESTON SC
1100 PM EDT MON MAY 25 2015

NOTE: "FAIR" INDICATES FEW OR NO CLOUDS BELOW 12,000 FEET WITH NO
SIGNIFICANT WEATHER AND/OR OBSTRUCTIONS TO VISIBILITY.

NOT ALL STATIONS ARE QUALITY CONTROLLED BY THE NATIONAL
WEATHER SERVICE. USE DATA WITH CAUTION...ESPECIALLY
DEWPOINT OBSERVATIONS.

SCZ027-030-031-034>040-042>050-260400-
...SOUTHEAST SOUTH CAROLINA...

CITY           SKY/WX    TMP DP  RH WIND       PRES   REMARKS
N CHARLESTON   PTCLDY    73  67  81 E8        30.27R
WATERFRONT PAR   N/A     76  71  84 E15       30.23S
MOUNT PLEASANT FAIR      72  70  94 E3        30.28R
JOHNS ISLAND   CLEAR     73  72  94 E9        30.27S
PINOPOLIS        N/A     73  68  83 VRB2      30.19R
MONCKS CORNER  FAIR      72  66  83 SE3       30.27R
SUMMERVILLE    FAIR      72  68  88 E3        30.27S
BEAUFORT MCAS  PTCLDY    74  70  87 E7        30.26R
BEAUFORT ARPT  FAIR      73  70  88 CALM      30.26R
HILTON HEAD IS PTCLDY    75  72  88 E5        30.27R
WALTERBORO     PTCLDY    68  66  94 E6        30.27R
ALLENDALE        N/A     73  68  83 CALM      30.25S

...SOUTHERN MIDLANDS AND PEE DEE...

CITY           SKY/WX    TMP DP  RH WIND       PRES   REMARKS
GEORGETOWN     NOT AVBL
KINGSTREE      NOT AVBL
ORANGEBURG     MOCLDY    72  66  81 SE5       30.27R
BARNWELL       FAIR      75  68  78 SE6       30.27R
AIKEN          FAIR      73  63  68 SE7       30.29R
MANNING        FAIR      68  61  77 CALM      30.27S
COLUMBIA       PTCLDY    74  65  73 E6        30.25R
SUMTER         CLEAR     73  65  77 SE7       30.26
FLORENCE       FAIR      71  65  81 SE7       30.28R
MYRTLE BEACH   NOT AVBL
N MYRTLE BEACH CLEAR     75  66  73 SE8       30.29S

$$

GAZ063-065-086>088-099>101-113>116-118-119-134>141-150-260400-
...SOUTHEAST GEORGIA...

CITY           SKY/WX    TMP DP  RH WIND       PRES   REMARKS
SAVANNAH ARPT  PTCLDY    74  70  87 E7        30.25R
HUNTER AAF     CLEAR     74  72  93 E5        30.23R
FORT STEWART   PTCLDY    72  69  90 E5        30.22S
STATESBORO     PTCLDY    73  71  95 SE5       30.25R
SYLVANIA       PTCLDY    74  71  92 SE3       30.25S
CLAXTON        FAIR      72  70  94 E3        30.24R

...CSRA...CENTRAL AND FAR SOUTHEAST GEORGIA...

CITY           SKY/WX    TMP DP  RH WIND       PRES   REMARKS
THOMSON        MOCLDY    78  71  79 SE5       30.27S
AUGUSTA-BUSH   PTCLDY    74  67  78 SE6       30.24R
AUGUSTA-DANIEL PTCLDY    76  66  71 SE7       30.25R
SWAINSBORO     FAIR      77  70  78 SE9       30.24R
VIDALIA        PTCLDY    73  68  83 SE6       30.22S
EASTMAN        FAIR      74  74 100 SE6       30.22S
HAZLEHURST     FAIR      76  70  81 SE6       30.21R
ALMA           CLEAR     75  69  81 E9        30.22R
WAYCROSS       CLEAR     76  73  91 SE9       30.21R
JESUP          FAIR      75  72  88 SE6       30.24R
BAXLEY         FAIR      77  70  78 SE6       30.22R
BRUNSWICK      CLEAR     75  72  88 E6        30.25R
SAINT SIMONS   NOT AVBL

$$

SCZ027-028-034-036>038-045-046-048>050-GAZ119-141-260400-
...LAKE AND SUPPLEMENTAL COASTAL OBSERVATIONS...

STATION/POSITION TIME  TEMP    WIND        PRES    WAVE   SWELL
                       AIR SEA DIR/SP/G            HT/PER HT/PER/DIR
                 (UTC) (F)     (DEG/KT/KT) (MB)    (FT/S) (FT/S/D)
UPR LAKE MARION  NOT AVBL
WINYAH BAY       NOT AVBL
LAKE MURRAY      0200   77     140/  6/ 10 1023.4R
ACE BASIN NERRS  NOT AVBL
FORT PULASKI     0200   76 78   80/ 13/ 14 1024.5R
SAPELO ISLAND    0200   75      90/  5     1023.0S

$$

ANZ835-935-AMZ111-154-330-350-352-354-370-450-454-472-260400-
...C-MAN AND BUOY OBSERVATIONS...

STATION/POSITION TIME  TEMP    WIND        PRES    WAVE   SWELL
                       AIR SEA DIR/SP/G            HT/PER HT/PER/DIR
                 (UTC) (F)     (DEG/KT/KT) (MB)    (FT/S) (FT/S/D)
BUOY 41004       0250   75 75   90/ 12/ 14 1024.6R   4/ 6   2/ 6
BUOY 41008       0250   76 76  110/ 10/ 10 1024.3R   3/ 7   3/ 90/ 7
FOLLY BEACH CMAN 0300   75     100/ 13/ 14 1025.0S
CAPERS NEARSHORE 0208   75     120/ 12/ 16 1025.0R
FRIPP NEARSHORE  0200   76      90/ 14/ 17 1023.5R


STATION/POSITION TIME  TEMP    WIND        PRES    WAVE   SWELL
                       AIR SEA DIR/SP/G            HT/PER HT/PER/DIR
                 (UTC) (F)     (DEG/KT/KT) (MB)    (FT/S) (FT/S/D)
5E ST. MARYS GA  0221      79                N/A     3/ 8
FRYING PAN BUOY  0250   76 74  120/ 10/ 12 1026.8R   4/ 6   3/130/ 6
BUOY 41025       0250   74 76  170/ 14/ 17 1027.2R   3/ 6   2/ 70/ 8
CAPE LOOKOUT NC  0300   74     160/ 11/ 12 1026.7R
BUOY 41002       0250   74 74  120/ 16/ 17 1026.9R   3/ 5   2/120/ 8
BUOY 41010       0220   79 81  110/ 10/ 14 1024.1R
ST AUGUSTINE FL  0300   78 79  130/ 10/ 12 1024.2R


$$



USA.gov is the U.S. government's official web portal to all federal, state and local government web resources and services.